Location: Cheyres
(46.8153°N, 6.7877°E)
Time: 09:39:28
(UTC+00:00)

Cosmos 990 Rocket - Pass Details

Date: 25 September 2021
Orbit: 746 x 769 km, 74.0° (Epoch: 21 October)

Event Time Altitude Azimuth Distance (km) Brightness Sun altitude
Exits shadow 19:17:14 21° 55° (NE) 1,650 5.4 -19.8°
Drops below altitude 10° 19:19:16 10° 39° (NE) 2,291 6.3 -20.1°
Sets 19:21:51 0° 30° (NNE) 3,225 7.1 -20.5°
